STARLINK-35270

Last updated on Mon Oct 20 2025 00:02:08 GMT+0000 (Coordinated Universal Time)

1 65882U 25224A 25292.25002315 -.01431140 00000+0 -76423-2 0 9991 2 65882 53.1513 313.5458 0001217 77.2841 21.3710 15.82287375 3104
UTC large
Height (km)
Speed (km/s)
/
Latitude / Longitude
Inclination (degrees)
Orbital Period (minutes)
Azimuth
Elevation
Range (km)
Doppler Factor

Next 0 passes for location: London (51.5072 / 0.1276)

Sorry there are no passes over London.